Location: Richmond
(37.5536°N, 77.4606°W)
Time: 22:33:46
(UTC-04:00)

ISS - Visible Passes

Search period start: 24 September 2017 00:00
Search period end: 04 October 2017 00:00
Orbit: 401 x 407 km, 51.6° (Epoch: 25 September)

Date Brightness Start Highest point End Pass type
(mag) Time Alt. Az. Time Alt. Az. Time Alt. Az.
24 Sep -3.4 20:44:21 10° SW 20:47:03 58° WSW 20:47:03 58° WSW visible
25 Sep -3.5 19:52:12 10° SSW 19:55:19 44° SE 19:57:34 17° ENE visible
25 Sep -0.6 21:29:21 10° W 21:30:16 15° WNW 21:30:16 15° WNW visible
26 Sep -2.3 20:36:24 10° W 20:39:25 34° NNW 20:40:32 26° N visible
27 Sep -3.5 19:43:44 10° WSW 19:46:58 66° NW 19:50:14 10° NE visible
27 Sep -0.6 21:22:23 10° NW 21:23:19 12° NNW 21:23:19 12° NNW visible
28 Sep -1.3 20:28:57 10° WNW 20:31:19 18° NNW 20:33:16 12° NNE visible
29 Sep -2.0 19:35:50 10° W 19:38:44 28° NNW 19:41:38 10° NNE visible
30 Sep -0.9 20:22:07 10° NW 20:23:19 11° NNW 20:24:31 10° N visible
01 Oct -1.2 19:28:28 10° WNW 19:30:36 16° NNW 19:32:44 10° NNE visible
03 Oct -0.9 19:21:54 10° NNW 19:22:33 10° NNW 19:23:12 10° N visible
